Location: Highridge
(54.0333°N, 114.1333°W)
Time: 14:36:07
(UTC+00:00)

Oscar 19 - Pass Details

Date: 05 December 2023
Orbit: 771 x 789 km, 98.9° (Epoch: 01 March)

Event Time Altitude Azimuth Distance (km) Brightness Sun altitude
Rises 11:59:00 0° 19° (NNE) 3,273 14.1 -30.8°
Reaches altitude 10° 12:01:26 10° 26° (NNE) 2,344 13.4 -30.4°
Maximum altitude 12:06:23 44° 99° (E) 1,074 11.7 -29.7°
Drops below altitude 10° 12:11:18 10° 171° (S) 2,338 13.2 -29.0°
Sets 12:13:43 0° 178° (S) 3,265 13.9 -28.6°
